Terminal Aerodrome Forecast
Issued by NWS

Home | Current Version | Previous Version | Text Only | Print | Product List | Glossary On
Versions: 1 2 3 4 5 6 7 8 9 10 11 12 13 14 15 16
000
FTUS43 KFGF 290500
TAFTVF
TAF
KTVF 290529Z 2906/3006 34016G22KT P6SM OVC005
     FM290900 33017KT P6SM OVC015
     FM292000 32016KT P6SM SCT015 BKN250
     FM300100 33005KT P6SM BKN250
      AMD LTD TO CLD VIS AND WIND=

USA.gov is the U.S. government's official web portal to all federal, state and local government web resources and services.